This is the latest recevied weather packets stored in our database for station/object W8RSN-13. If no packets are shown the sender has not sent any weather packets the latest 10 day(s).
| Time | Temp. | Humidity | Pressure | Rain* | Wind** | Luminosity | Snow |
|---|---|---|---|---|---|---|---|
| 1788462869 | 26.11° C | 46% | 1015.6 hPa | - | - | - | - |
| 1788462568 | 26.11° C | 46% | 1015.8 hPa | - | - | - | - |
| 1788462267 | 26.11° C | 45% | 1016 hPa | - | - | - | - |
| 1788461966 | 25.56° C | 46% | 1016 hPa | - | - | - | - |
| 1788461665 | 25.56° C | 46% | 1016 hPa | - | - | - | - |
| 1788461364 | 25.56° C | 47% | 1016.1 hPa | - | - | - | - |
| 1788461064 | 25° C | 48% | 1016.1 hPa | - | - | - | - |
| 1788460763 | 25° C | 48% | 1016.3 hPa | - | - | - | - |
| 1788460462 | 24.44° C | 49% | 1016.4 hPa | - | - | - | - |
| 1788460161 | 24.44° C | 49% | 1016.5 hPa | - | - | - | - |
| 1788459860 | 23.89° C | 50% | 1016.5 hPa | - | - | - | - |
| 1788459559 | 23.89° C | 50% | 1016.4 hPa | - | - | - | - |
| 1788459258 | 23.89° C | 50% | 1016.6 hPa | - | - | - | - |
| 1788458957 | 23.33° C | 50% | 1016.5 hPa | - | - | - | - |
| 1788458656 | 23.89° C | 50% | 1016.5 hPa | - | - | - | - |
| 1788458376 | 23.89° C | 51% | 1016.5 hPa | - | - | - | - |
| 1788458075 | 23.33° C | 51% | 1016.6 hPa | - | - | - | - |
| 1788457774 | 23.33° C | 52% | 1016.5 hPa | - | - | - | - |
| 1788457473 | 23.33° C | 53% | 1016.6 hPa | - | - | - | - |
| 1788457172 | 22.78° C | 54% | 1016.7 hPa | - | - | - | - |
| 1788456871 | 22.78° C | 52% | 1016.7 hPa | - | - | - | - |
| 1788456570 | 23.33° C | 52% | 1016.8 hPa | - | - | - | - |
| 1788456269 | 22.78° C | 53% | 1016.8 hPa | - | - | - | - |
| 1788455969 | 22.78° C | 53% | 1016.7 hPa | - | - | - | - |
| 1788455667 | 22.78° C | 54% | 1016.8 hPa | - | - | - | - |
* Rain since midnight (hover to see other rain measurements)
** Current wind speed in m/s (hover to see current wind gust speed)